SCP
0 0 0 0 0 0 0 0 0 0 0 0 0 0 0 0 0 0 0 0 0 0 0 0 1 1 1 1 0 0 0 -0 0 1 1 1 1 1 1 0 0 0 0 0 0 0 0 0 0
0 0 0 0 0 0 0 0 0 0 0 0 0 0 0 0 0 0 1 0 0 0 0 1 1 1 1 1 1 1 0 0 0 0 1 0 1 1 0 0 0 0 0 0 0 0 0 0 0
0 0 0 0 0 0 0 0 0 0 0 0 0 0 0 0 0 0 0 0 1 0 0 1 0 0 0 1 1 1 1 1 0 0 0 0 0 0 1 0 0 0 0 0 0 0 0 0 0
0 0 0 0 0 -0 0 0 0 0 0 0 0 0 0 0 0 0 0 0 0 1 1 1 1 1 1 1 1 1 1 1 -0 0 -0 0 1 1 0 0 0 0 0 0 0 0 0 0 0
0 0 0 0 0 0 0 0 0 0 0 0 0 0 0 0 1 0 0 0 0 1 1 1 1 1 1 1 1 0 1 1 1 1 -0 0 0 0 0 0 0 0 0 0 0 -0 -0 0 0
0 0 0 0 0 0 0 0 0 0 0 0 0 0 0 0 0 0 1 0 0 1 1 1 1 1 1 1 1 0 0 1 1 0 0 0 -0 0 -0 0 0 0 0 0 0 -0 0 0 0
0 0 0 0 0 -0 0 0 0 0 0 0 0 0 0 0 1 1 1 1 1 1 1 1 0 0 1 1 1 1 1 1 1 1 1 0 0 0 -0 0 0 0 0 0 -0 -0 0 0 0
0 0 0 -0 -0 -0 -0 0 0 0 0 0 0 0 0 1 1 1 1 1 1 1 0 1 0 0 0 0 0 0 0 1 1 0 0 0 0 0 0 0 -0 0 0 0 -0 -0 0 0 0
0 0 0 -0 0 -0 -0 0 0 0 0 0 0 0 0 1 1 1 0 1 0 0 0 0 0 0 0 0 0 0 0 0 0 0 0 0 0 0 0 0 0 0 0 0 0 0 0 0 0
0 0 0 0 -0 -0 -0 -0 0 0 0 0 0 0 0 1 1 1 0 1 0 0 0 0 0 0 0 0 0 0 0 0 0 0 0 0 0 0 0 0 0 0 0 0 0 0 0 0 0
0 0 0 0 -0 -0 -0 0 0 0 0 0 0 0 0 0 0 0 0 0 1 0 0 0 0 0 0 0 0 0 0 0 0 0 0 0 0 0 0 0 0 0 0 0 0 0 0 0 0
0 0 0 0 0 0 -0 0 0 0 0 0 0 0 0 0 0 0 0 0 1 1 0 0 0 0 0 0 0 0 0 0 0 0 0 0 0 0 0 0 0 0 0 0 0 0 0 -0 0
0 0 0 -0 0 0 0 0 0 0 0 0 0 0 0 0 0 0 0 0 0 1 1 0 0 0 0 0 0 0 0 0 0 0 0 0 0 0 0 0 0 0 0 0 0 0 0 0 0
0 0 0 -0 -0 -0 0 0 0 0 0 0 0 0 0 0 0 0 1 1 0 0 0 0 0 0 0 0 0 0 0 0 0 0 0 0 0 0 0 0 0 0 0 0 0 0 0 0 0
0 0 0 0 0 0 0 0 0 0 0 0 -0 0 0 0 0 0 1 1 0 0 0 0 0 0 0 0 0 0 0 0 0 0 0 0 0 0 0 0 0 0 0 0 0 0 0 0 0
0 0 0 0 0 0 0 0 0 0 0 0 0 0 0 0 0 0 1 0 0 0 0 0 0 0 0 0 0 -0 0 0 0 0 0 0 0 0 0 0 0 0 0 0 0 0 0 0 0
0 0 0 0 0 0 0 0 -0 -0 0 0 0 0 0 0 0 0 0 0 0 0 0 0 0 0 0 0 0 0 -0 -0 0 0 0 0 0 0 0 0 0 0 0 0 0 0 0 0 0
0 0 0 0 0 0 0 0 -0 -0 0 0 0 0 0 0 0 0 -0 0 0 0 0 0 0 0 0 0 0 0 0 0 -0 0 0 0 0 0 0 0 0 0 0 0 0 0 0 0 0
0 0 0 0 0 0 0 0 0 -0 0 0 0 0 0 0 0 0 -0 0 0 0 0 0 0 0 0 0 0 0 0 0 0 0 0 0 0 0 0 0 0 0 0 0 0 0 0 0 0
0 0 0 0 0 0 0 -0 -0 0 0 0 0 0 0 0 0 0 -0 0 0 0 0 0 0 0 0 0 0 0 0 0 0 0 0 0 0 0 0 0 0 0 0 0 0 0 0 0 0
0 0 0 0 0 0 0 0 -0 0 0 0 0 0 0 0 0 0 -0 0 0 0 0 0 0 0 0 0 0 0 0 0 0 0 0 0 0 0 0 0 0 0 0 0 0 0 0 0 0
0 0 0 0 0 0 0 -0 0 0 0 0 0 0 0 0 0 0 0 0 0 0 0 -0 0 0 0 0 0 0 0 0 0 -0 0 0 0 0 0 0 0 0 0 0 0 0 0 0 0
0 0 0 0 0 0 0 0 -0 -0 0 0 -0 0 0 0 0 0 -0 0 0 0 0 -0 0 0 0 0 0 0 0 0 0 -0 0 0 0 0 0 0 0 0 0 0 0 0 0 0 0
0 0 0 0 0 0 0 0 -0 0 0 0 0 0 0 0 0 0 -0 0 0 0 0 -0 0 0 0 0 0 0 0 0 0 0 0 0 0 0 0 0 0 0 0 0 0 0 0 0 0
0 0 0 0 0 0 0 0 -0 0 0 0 -0 -0 -0 0 0 -0 -0 0 0 0 0 -0 -0 -0 -0 0 0 0 0 -0 -0 0 -0 0 0 0 0 0 0 0 0 0 0 0 0 0 0
0 0 0 0 0 0 0 0 -0 -0 0 -0 0 0 0 0 0 -0 -0 0 0 0 0 -0 -0 -0 -0 -0 0 -0 -0 -0 -0 -0 -0 -0 0 0 0 0 0 0 0 0 0 0 0 0 0
0 0 0 0 0 -0 -0 0 -0 0 0 0 0 0 0 0 0 -0 0 0 0 0 0 0 0 0 -0 -0 0 -0 -0 -0 -0 -0 -0 -0 -0 0 0 0 0 0 0 0 0 0 0 0 0
0 0 0 0 0 0 -0 0 -0 0 0 0 0 0 0 0 0 0 0 0 0 0 0 0 -0 0 -0 -0 -0 -0 -0 -0 -0 -0 -0 0 0 -0 -0 -0 0 0 0 0 0 0 0 0 -0
0 0 0 0 0 0 0 0 0 -0 0 0 0 0 0 0 0 0 0 0 0 0 0 0 0 0 -0 -0 -0 -0 -0 -0 -0 -0 -0 -0 -0 -0 -0 -0 -0 0 0 0 0 0 0 0 0
0 -0 0 0 0 0 0 0 0 -0 -0 0 0 0 0 0 0 0 0 0 0 0 0 0 0 0 0 -0 0 0 -0 -0 -0 -0 -0 -0 -0 -0 -0 -0 -0 0 0 0 0 0 0 0 0
Wind_Speed_500mb
8 5 4 10 6 7 10 18 12 6 11 36 31 22 3 11 11 8 24 14 13 13 13 15 8 19 33 37 39 38 43 43 41 41 42 39 36 33 33 34 37 39 39 41 41 41 42 39 35
10 11 12 9 6 3 13 6 13 20 25 23 13 2 9 11 31 35 21 11 14 12 12 15 5 11 31 34 38 43 41 43 44 46 46 48 38 31 31 35 36 38 40 41 40 41 44 42 42
8 11 7 7 6 12 10 6 15 16 20 15 6 9 3 5 35 36 15 4 9 13 11 12 12 12 18 37 40 47 44 47 48 51 50 47 33 24 31 35 36 36 38 40 43 47 50 52 56
12 7 12 2 23 32 22 12 13 11 12 27 16 5 14 15 24 17 8 11 10 8 13 15 18 20 21 25 44 49 55 52 54 56 59 47 40 33 35 38 39 35 33 37 45 54 58 62 69
9 12 6 9 23 28 31 14 27 13 7 7 17 8 9 21 20 22 18 9 10 14 17 20 20 26 28 30 34 48 59 62 60 62 62 43 36 47 40 41 42 35 31 41 51 61 72 75 69
8 8 3 10 26 23 15 23 24 16 7 7 16 15 3 18 23 26 22 10 17 27 25 25 25 30 33 37 39 43 56 65 64 69 61 50 52 59 48 47 44 36 35 43 56 67 70 70 68
17 3 13 18 27 31 30 14 17 17 10 8 1 3 20 28 24 23 21 19 27 29 29 30 32 33 38 44 49 50 49 62 67 70 70 51 69 56 58 56 49 41 43 44 52 67 73 73 67
43 6 16 22 22 29 31 10 30 24 12 10 10 7 12 34 37 35 29 22 22 23 25 30 34 33 41 50 55 57 59 65 74 76 65 80 76 62 67 62 54 48 50 53 57 62 67 68 64
44 12 20 35 24 38 40 8 13 16 13 13 24 32 44 43 44 35 22 19 21 24 26 27 30 32 35 46 50 58 65 70 75 78 76 94 62 65 66 66 56 52 54 56 58 62 66 64 65
16 14 22 22 30 34 36 33 26 3 18 25 30 43 40 37 44 34 23 22 24 30 30 41 39 39 35 40 45 50 62 67 71 84 82 92 67 67 74 70 58 60 59 54 59 63 65 68 66
31 29 28 40 56 62 43 28 41 20 16 28 18 23 23 46 44 31 22 20 25 26 28 38 36 36 32 32 34 30 16 49 85 75 83 67 78 82 84 72 62 66 64 66 66 67 68 67 67
29 45 46 49 60 59 37 51 21 33 34 47 45 39 16 45 40 36 32 29 34 33 27 37 34 35 24 27 29 21 17 20 61 88 87 99 93 88 87 76 76 75 74 72 70 69 68 72 60
27 32 55 60 61 59 64 43 28 33 54 57 58 56 44 30 33 34 22 24 36 37 31 33 34 28 21 27 28 17 15 20 32 85 91 114 88 88 86 83 83 80 74 71 69 68 71 66 57
32 35 39 51 48 50 28 25 32 45 63 64 62 64 60 54 32 28 28 37 40 35 37 31 28 19 22 33 25 21 4 16 32 90 107 101 100 102 91 85 85 81 77 72 69 68 71 56 47
26 24 30 34 37 31 44 41 24 62 67 68 70 74 70 55 38 39 41 45 35 35 34 28 15 22 24 28 33 26 18 20 45 93 106 98 106 95 91 92 92 84 78 72 67 63 55 52 39
12 13 17 20 19 25 23 47 41 71 65 64 69 79 47 37 52 48 43 44 32 38 36 25 19 24 25 24 32 34 24 34 49 74 86 85 85 88 88 94 92 84 79 73 64 56 48 43 42
9 24 27 41 25 35 32 36 24 76 74 56 55 36 37 47 55 53 48 42 43 39 36 27 25 29 29 27 30 30 30 47 59 87 82 91 87 84 81 86 87 87 81 76 65 56 56 52 43
12 22 28 30 23 13 23 38 34 64 68 36 45 39 46 51 58 63 58 57 52 46 35 23 31 40 39 32 32 35 36 43 63 78 95 90 89 83 81 80 81 85 82 76 70 57 61 52 46
27 33 38 33 15 14 22 31 41 51 70 35 40 51 57 58 60 72 65 58 51 41 31 25 34 38 40 38 41 45 48 55 58 85 81 94 88 94 86 79 78 84 79 77 77 67 62 53 49
39 41 39 26 10 20 21 35 36 42 51 71 36 34 39 35 62 73 67 59 48 32 26 28 37 40 39 41 41 44 53 58 68 79 92 98 98 95 92 88 87 82 82 80 77 76 65 55 53
33 25 17 24 22 24 17 38 28 46 56 62 56 50 52 36 64 77 69 61 45 36 27 33 39 37 37 37 36 35 44 53 70 81 101 109 97 95 102 94 89 85 86 85 78 74 69 61 58
34 14 24 28 17 17 10 36 30 43 53 48 45 57 64 48 69 84 76 63 47 37 29 36 42 38 36 34 31 27 30 39 59 92 92 102 106 104 104 91 85 84 89 82 75 63 60 60 63
24 16 27 19 10 11 20 29 20 26 33 42 32 48 66 84 79 87 79 63 45 39 33 38 43 40 36 34 27 27 22 27 35 61 79 100 102 107 115 100 92 86 80 80 67 66 60 60 59
6 7 18 7 4 20 19 25 20 25 31 42 35 46 36 70 89 87 76 57 46 39 31 40 43 41 40 37 34 28 27 34 28 57 73 72 105 107 113 110 100 96 80 74 68 65 68 68 48
7 5 6 5 9 24 10 27 22 27 42 45 46 48 40 71 80 83 74 61 52 46 36 44 47 42 41 41 37 35 21 37 29 52 75 84 97 110 119 116 107 94 79 79 72 65 66 52 49
15 16 9 13 8 18 9 14 9 25 39 54 64 45 42 68 85 83 73 67 55 47 42 46 51 45 43 43 40 42 32 24 33 58 80 89 87 104 103 112 109 91 80 82 75 69 62 57 58
16 13 22 16 12 13 8 17 25 15 34 41 27 17 48 64 84 82 75 65 55 49 47 47 50 49 46 48 48 40 44 39 36 40 43 57 70 76 99 103 89 88 90 83 67 66 67 74 58
13 8 6 6 9 11 11 23 18 11 38 53 19 25 23 66 78 82 75 69 55 47 46 49 51 50 45 50 55 49 46 40 36 38 42 45 57 66 71 81 86 83 84 78 71 70 64 64 78
12 7 8 4 12 8 5 8 15 22 20 26 38 7 47 28 71 83 77 71 64 51 48 51 50 53 46 53 56 54 50 46 45 45 45 50 56 67 76 84 83 86 79 75 66 63 63 73 66
8 7 17 13 16 11 13 20 20 13 5 28 37 33 40 35 12 76 80 77 71 61 53 54 53 50 46 51 58 55 50 49 45 49 48 52 50 50 54 63 69 72 71 72 67 69 76 76 77
Wind_Direction_500mb
231 129 275 294 34 84 265 261 225 79 69 59 62 68 120 282 238 194 160 110 60 36 355 348 6 205 192 185 182 184 185 184 182 184 177 171 169 171 173 172 169 165 164 160 158 158 160 158 155
200 204 298 277 124 304 279 266 99 107 110 79 50 112 230 235 104 137 158 109 2 10 340 313 288 222 207 198 194 198 195 193 192 187 176 169 160 170 175 172 170 168 165 159 158 155 152 144 139
198 217 250 159 211 198 238 332 120 121 111 111 102 291 309 221 139 149 159 179 288 305 290 285 272 259 221 217 208 210 212 200 202 189 180 166 157 180 183 177 168 165 162 159 154 151 143 138 130
172 237 253 143 252 260 244 272 117 76 70 142 145 105 253 42 161 180 183 230 245 270 275 247 255 255 251 236 223 217 215 213 207 195 179 174 160 167 190 179 167 164 164 154 145 145 139 130 126
203 264 222 235 254 267 277 208 118 116 103 84 166 219 226 301 180 177 184 180 207 232 258 255 247 256 252 245 233 226 221 217 212 197 187 188 200 181 190 184 172 166 163 155 150 140 134 134 130
243 209 309 254 270 278 284 168 130 115 87 306 284 244 253 160 182 179 186 208 215 216 240 253 252 250 245 244 239 233 228 222 213 200 199 188 181 163 186 191 181 172 160 154 147 141 141 137 134
230 1 247 262 278 305 293 218 147 141 164 248 204 126 138 157 184 196 217 246 254 231 236 248 253 250 243 240 237 230 228 223 210 206 202 210 183 170 172 193 186 170 155 153 151 146 145 141 137
247 161 280 272 281 278 292 325 134 142 198 211 124 196 200 207 198 198 207 247 258 256 253 265 268 256 250 246 240 235 230 222 215 204 222 195 177 169 183 190 186 168 159 156 153 150 149 146 140
259 251 249 257 266 273 294 0 204 202 188 225 251 252 255 223 197 200 214 261 268 272 274 278 277 271 271 250 238 237 236 233 221 204 204 185 178 176 180 193 187 170 162 158 158 155 153 149 146
216 248 241 256 268 278 297 321 314 215 229 229 235 244 255 195 195 206 225 268 279 266 271 285 282 280 286 251 243 241 243 230 206 208 208 173 182 174 186 193 182 170 162 162 161 159 155 152 147
244 243 252 261 266 279 287 302 313 308 308 284 260 283 198 194 193 197 211 230 245 253 251 274 271 285 286 248 240 210 231 237 216 199 199 190 186 179 188 185 178 171 167 167 165 161 157 154 151
250 257 258 261 263 267 280 287 292 287 283 297 296 301 266 204 196 197 214 230 232 245 249 259 269 290 262 226 214 261 255 207 208 204 209 211 189 179 188 183 178 173 171 169 167 163 157 154 153
257 258 265 270 268 265 269 270 269 281 284 284 284 283 278 210 198 196 220 216 217 229 239 259 273 279 245 224 225 205 259 231 189 182 192 177 182 187 188 184 177 175 172 171 168 165 158 157 160
272 289 287 287 290 293 296 280 266 272 282 271 269 268 259 249 212 197 225 226 224 243 252 256 269 239 226 224 222 205 185 164 214 163 170 182 182 187 186 183 178 177 176 174 171 166 162 161 160
317 307 302 292 282 280 296 292 285 284 273 272 267 264 260 233 219 221 232 233 241 257 237 242 238 232 221 216 217 217 202 187 145 172 174 177 185 182 185 182 179 180 179 175 172 168 165 170 163
332 305 287 278 292 286 280 269 270 269 265 261 262 260 235 221 222 212 214 222 232 222 226 232 209 222 214 201 204 214 202 182 166 156 172 179 188 187 185 183 181 182 181 176 173 172 170 173 179
216 259 258 284 269 281 278 288 297 319 256 254 273 208 228 243 230 199 201 209 209 218 222 245 208 209 200 196 188 196 193 184 180 179 182 181 190 188 189 186 185 186 184 180 176 176 179 182 189
231 236 259 258 263 309 312 301 297 304 304 255 261 230 231 243 213 192 188 200 213 224 235 245 204 212 210 203 193 184 190 190 188 180 183 182 190 191 190 193 188 189 188 184 181 180 191 194 188
254 264 269 278 285 292 294 290 290 308 309 257 264 245 231 240 220 186 188 204 215 221 225 220 199 199 203 201 197 196 187 195 195 194 193 190 192 192 191 195 192 194 192 188 185 188 192 187 189
243 252 259 278 263 281 291 279 283 296 290 285 253 265 269 258 191 180 190 204 212 215 215 208 190 205 207 202 206 205 201 197 205 201 203 200 197 199 191 191 190 190 193 187 187 190 187 188 188
255 252 262 262 269 249 277 275 276 287 294 279 255 271 270 278 178 178 188 200 203 211 214 193 193 198 208 210 202 201 204 210 210 211 205 201 204 200 188 186 191 192 192 192 188 190 193 184 188
246 237 270 272 282 271 185 284 283 286 286 281 256 252 251 241 185 184 188 197 204 201 208 191 192 196 202 209 210 209 219 214 214 213 202 214 202 194 188 187 191 191 193 182 182 187 194 191 192
268 232 235 237 254 302 282 279 285 252 269 280 271 249 242 236 187 189 193 199 198 196 203 194 198 199 203 210 208 235 234 237 229 218 213 193 197 193 188 188 192 189 194 197 192 196 212 199 200
249 325 292 242 220 262 260 268 266 261 264 278 267 265 277 223 185 190 189 189 192 192 200 197 198 203 206 203 193 206 223 221 225 209 206 201 195 198 193 190 191 193 188 187 189 193 200 204 204
155 32 297 287 236 251 244 266 261 273 260 254 263 269 289 211 173 175 179 185 190 190 198 199 199 200 205 201 196 192 187 204 204 203 201 187 180 190 196 191 193 194 201 202 206 211 210 204 212
201 165 190 226 227 269 248 263 244 264 278 297 262 270 168 151 159 172 181 187 193 194 200 201 202 200 202 197 200 196 195 190 192 186 192 191 193 194 193 198 201 200 203 211 206 210 211 210 226
227 199 221 251 289 288 242 274 291 351 326 310 274 251 164 152 161 172 180 188 193 199 202 207 202 201 199 197 202 197 195 189 179 182 192 201 206 207 207 202 205 205 207 202 205 211 216 220 227
180 168 239 245 210 244 241 256 253 334 312 309 352 30 346 172 165 173 181 190 199 204 203 209 200 202 195 194 198 198 195 196 202 204 196 197 194 199 202 196 198 198 199 207 213 222 222 230 234
347 325 219 206 186 227 312 270 81 123 271 335 325 3 343 23 173 177 187 195 198 200 202 203 198 203 194 191 194 199 203 208 211 208 204 203 201 200 199 202 205 206 206 209 220 224 235 233 236
165 237 319 225 237 225 228 251 270 34 27 345 322 28 328 341 300 176 186 192 194 197 198 200 199 200 202 188 192 199 200 201 201 200 197 196 199 204 201 206 207 211 214 216 225 229 235 236 245
Wind_Speed_850mb
8 5 4 10 6 7 10 18 12 6 11 36 31 22 3 11 11 8 24 14 13 13 13 15 8 19 33 37 39 38 43 43 41 41 42 39 36 33 33 34 37 39 39 41 41 41 42 39 35
10 11 12 9 6 3 13 6 13 20 25 23 13 2 9 11 31 35 21 11 14 12 12 15 5 11 31 34 38 43 41 43 44 46 46 48 38 31 31 35 36 38 40 41 40 41 44 42 42
8 11 7 7 6 12 10 6 15 16 20 15 6 9 3 5 35 36 15 4 9 13 11 12 12 12 18 37 40 47 44 47 48 51 50 47 33 24 31 35 36 36 38 40 43 47 50 52 56
12 7 12 2 23 32 22 12 13 11 12 27 16 5 14 15 24 17 8 11 10 8 13 15 18 20 21 25 44 49 55 52 54 56 59 47 40 33 35 38 39 35 33 37 45 54 58 62 69
9 12 6 9 23 28 31 14 27 13 7 7 17 8 9 21 20 22 18 9 10 14 17 20 20 26 28 30 34 48 59 62 60 62 62 43 36 47 40 41 42 35 31 41 51 61 72 75 69
8 8 3 10 26 23 15 23 24 16 7 7 16 15 3 18 23 26 22 10 17 27 25 25 25 30 33 37 39 43 56 65 64 69 61 50 52 59 48 47 44 36 35 43 56 67 70 70 68
17 3 13 18 27 31 30 14 17 17 10 8 1 3 20 28 24 23 21 19 27 29 29 30 32 33 38 44 49 50 49 62 67 70 70 51 69 56 58 56 49 41 43 44 52 67 73 73 67
43 6 16 22 22 29 31 10 30 24 12 10 10 7 12 34 37 35 29 22 22 23 25 30 34 33 41 50 55 57 59 65 74 76 65 80 76 62 67 62 54 48 50 53 57 62 67 68 64
44 12 20 35 24 38 40 8 13 16 13 13 24 32 44 43 44 35 22 19 21 24 26 27 30 32 35 46 50 58 65 70 75 78 76 94 62 65 66 66 56 52 54 56 58 62 66 64 65
16 14 22 22 30 34 36 33 26 3 18 25 30 43 40 37 44 34 23 22 24 30 30 41 39 39 35 40 45 50 62 67 71 84 82 92 67 67 74 70 58 60 59 54 59 63 65 68 66
31 29 28 40 56 62 43 28 41 20 16 28 18 23 23 46 44 31 22 20 25 26 28 38 36 36 32 32 34 30 16 49 85 75 83 67 78 82 84 72 62 66 64 66 66 67 68 67 67
29 45 46 49 60 59 37 51 21 33 34 47 45 39 16 45 40 36 32 29 34 33 27 37 34 35 24 27 29 21 17 20 61 88 87 99 93 88 87 76 76 75 74 72 70 69 68 72 60
27 32 55 60 61 59 64 43 28 33 54 57 58 56 44 30 33 34 22 24 36 37 31 33 34 28 21 27 28 17 15 20 32 85 91 114 88 88 86 83 83 80 74 71 69 68 71 66 57
32 35 39 51 48 50 28 25 32 45 63 64 62 64 60 54 32 28 28 37 40 35 37 31 28 19 22 33 25 21 4 16 32 90 107 101 100 102 91 85 85 81 77 72 69 68 71 56 47
26 24 30 34 37 31 44 41 24 62 67 68 70 74 70 55 38 39 41 45 35 35 34 28 15 22 24 28 33 26 18 20 45 93 106 98 106 95 91 92 92 84 78 72 67 63 55 52 39
12 13 17 20 19 25 23 47 41 71 65 64 69 79 47 37 52 48 43 44 32 38 36 25 19 24 25 24 32 34 24 34 49 74 86 85 85 88 88 94 92 84 79 73 64 56 48 43 42
9 24 27 41 25 35 32 36 24 76 74 56 55 36 37 47 55 53 48 42 43 39 36 27 25 29 29 27 30 30 30 47 59 87 82 91 87 84 81 86 87 87 81 76 65 56 56 52 43
12 22 28 30 23 13 23 38 34 64 68 36 45 39 46 51 58 63 58 57 52 46 35 23 31 40 39 32 32 35 36 43 63 78 95 90 89 83 81 80 81 85 82 76 70 57 61 52 46
27 33 38 33 15 14 22 31 41 51 70 35 40 51 57 58 60 72 65 58 51 41 31 25 34 38 40 38 41 45 48 55 58 85 81 94 88 94 86 79 78 84 79 77 77 67 62 53 49
39 41 39 26 10 20 21 35 36 42 51 71 36 34 39 35 62 73 67 59 48 32 26 28 37 40 39 41 41 44 53 58 68 79 92 98 98 95 92 88 87 82 82 80 77 76 65 55 53
33 25 17 24 22 24 17 38 28 46 56 62 56 50 52 36 64 77 69 61 45 36 27 33 39 37 37 37 36 35 44 53 70 81 101 109 97 95 102 94 89 85 86 85 78 74 69 61 58
34 14 24 28 17 17 10 36 30 43 53 48 45 57 64 48 69 84 76 63 47 37 29 36 42 38 36 34 31 27 30 39 59 92 92 102 106 104 104 91 85 84 89 82 75 63 60 60 63
24 16 27 19 10 11 20 29 20 26 33 42 32 48 66 84 79 87 79 63 45 39 33 38 43 40 36 34 27 27 22 27 35 61 79 100 102 107 115 100 92 86 80 80 67 66 60 60 59
6 7 18 7 4 20 19 25 20 25 31 42 35 46 36 70 89 87 76 57 46 39 31 40 43 41 40 37 34 28 27 34 28 57 73 72 105 107 113 110 100 96 80 74 68 65 68 68 48
7 5 6 5 9 24 10 27 22 27 42 45 46 48 40 71 80 83 74 61 52 46 36 44 47 42 41 41 37 35 21 37 29 52 75 84 97 110 119 116 107 94 79 79 72 65 66 52 49
15 16 9 13 8 18 9 14 9 25 39 54 64 45 42 68 85 83 73 67 55 47 42 46 51 45 43 43 40 42 32 24 33 58 80 89 87 104 103 112 109 91 80 82 75 69 62 57 58
16 13 22 16 12 13 8 17 25 15 34 41 27 17 48 64 84 82 75 65 55 49 47 47 50 49 46 48 48 40 44 39 36 40 43 57 70 76 99 103 89 88 90 83 67 66 67 74 58
13 8 6 6 9 11 11 23 18 11 38 53 19 25 23 66 78 82 75 69 55 47 46 49 51 50 45 50 55 49 46 40 36 38 42 45 57 66 71 81 86 83 84 78 71 70 64 64 78
12 7 8 4 12 8 5 8 15 22 20 26 38 7 47 28 71 83 77 71 64 51 48 51 50 53 46 53 56 54 50 46 45 45 45 50 56 67 76 84 83 86 79 75 66 63 63 73 66
8 7 17 13 16 11 13 20 20 13 5 28 37 33 40 35 12 76 80 77 71 61 53 54 53 50 46 51 58 55 50 49 45 49 48 52 50 50 54 63 69 72 71 72 67 69 76 76 77
Wind_Direction_850mb
231 129 275 294 34 84 265 261 225 79 69 59 62 68 120 282 238 194 160 110 60 36 355 348 6 205 192 185 182 184 185 184 182 184 177 171 169 171 173 172 169 165 164 160 158 158 160 158 155
200 204 298 277 124 304 279 266 99 107 110 79 50 112 230 235 104 137 158 109 2 10 340 313 288 222 207 198 194 198 195 193 192 187 176 169 160 170 175 172 170 168 165 159 158 155 152 144 139
198 217 250 159 211 198 238 332 120 121 111 111 102 291 309 221 139 149 159 179 288 305 290 285 272 259 221 217 208 210 212 200 202 189 180 166 157 180 183 177 168 165 162 159 154 151 143 138 130
172 237 253 143 252 260 244 272 117 76 70 142 145 105 253 42 161 180 183 230 245 270 275 247 255 255 251 236 223 217 215 213 207 195 179 174 160 167 190 179 167 164 164 154 145 145 139 130 126
203 264 222 235 254 267 277 208 118 116 103 84 166 219 226 301 180 177 184 180 207 232 258 255 247 256 252 245 233 226 221 217 212 197 187 188 200 181 190 184 172 166 163 155 150 140 134 134 130
243 209 309 254 270 278 284 168 130 115 87 306 284 244 253 160 182 179 186 208 215 216 240 253 252 250 245 244 239 233 228 222 213 200 199 188 181 163 186 191 181 172 160 154 147 141 141 137 134
230 1 247 262 278 305 293 218 147 141 164 248 204 126 138 157 184 196 217 246 254 231 236 248 253 250 243 240 237 230 228 223 210 206 202 210 183 170 172 193 186 170 155 153 151 146 145 141 137
247 161 280 272 281 278 292 325 134 142 198 211 124 196 200 207 198 198 207 247 258 256 253 265 268 256 250 246 240 235 230 222 215 204 222 195 177 169 183 190 186 168 159 156 153 150 149 146 140
259 251 249 257 266 273 294 0 204 202 188 225 251 252 255 223 197 200 214 261 268 272 274 278 277 271 271 250 238 237 236 233 221 204 204 185 178 176 180 193 187 170 162 158 158 155 153 149 146
216 248 241 256 268 278 297 321 314 215 229 229 235 244 255 195 195 206 225 268 279 266 271 285 282 280 286 251 243 241 243 230 206 208 208 173 182 174 186 193 182 170 162 162 161 159 155 152 147
244 243 252 261 266 279 287 302 313 308 308 284 260 283 198 194 193 197 211 230 245 253 251 274 271 285 286 248 240 210 231 237 216 199 199 190 186 179 188 185 178 171 167 167 165 161 157 154 151
250 257 258 261 263 267 280 287 292 287 283 297 296 301 266 204 196 197 214 230 232 245 249 259 269 290 262 226 214 261 255 207 208 204 209 211 189 179 188 183 178 173 171 169 167 163 157 154 153
257 258 265 270 268 265 269 270 269 281 284 284 284 283 278 210 198 196 220 216 217 229 239 259 273 279 245 224 225 205 259 231 189 182 192 177 182 187 188 184 177 175 172 171 168 165 158 157 160
272 289 287 287 290 293 296 280 266 272 282 271 269 268 259 249 212 197 225 226 224 243 252 256 269 239 226 224 222 205 185 164 214 163 170 182 182 187 186 183 178 177 176 174 171 166 162 161 160
317 307 302 292 282 280 296 292 285 284 273 272 267 264 260 233 219 221 232 233 241 257 237 242 238 232 221 216 217 217 202 187 145 172 174 177 185 182 185 182 179 180 179 175 172 168 165 170 163
332 305 287 278 292 286 280 269 270 269 265 261 262 260 235 221 222 212 214 222 232 222 226 232 209 222 214 201 204 214 202 182 166 156 172 179 188 187 185 183 181 182 181 176 173 172 170 173 179
216 259 258 284 269 281 278 288 297 319 256 254 273 208 228 243 230 199 201 209 209 218 222 245 208 209 200 196 188 196 193 184 180 179 182 181 190 188 189 186 185 186 184 180 176 176 179 182 189
231 236 259 258 263 309 312 301 297 304 304 255 261 230 231 243 213 192 188 200 213 224 235 245 204 212 210 203 193 184 190 190 188 180 183 182 190 191 190 193 188 189 188 184 181 180 191 194 188
254 264 269 278 285 292 294 290 290 308 309 257 264 245 231 240 220 186 188 204 215 221 225 220 199 199 203 201 197 196 187 195 195 194 193 190 192 192 191 195 192 194 192 188 185 188 192 187 189
243 252 259 278 263 281 291 279 283 296 290 285 253 265 269 258 191 180 190 204 212 215 215 208 190 205 207 202 206 205 201 197 205 201 203 200 197 199 191 191 190 190 193 187 187 190 187 188 188
255 252 262 262 269 249 277 275 276 287 294 279 255 271 270 278 178 178 188 200 203 211 214 193 193 198 208 210 202 201 204 210 210 211 205 201 204 200 188 186 191 192 192 192 188 190 193 184 188
246 237 270 272 282 271 185 284 283 286 286 281 256 252 251 241 185 184 188 197 204 201 208 191 192 196 202 209 210 209 219 214 214 213 202 214 202 194 188 187 191 191 193 182 182 187 194 191 192
268 232 235 237 254 302 282 279 285 252 269 280 271 249 242 236 187 189 193 199 198 196 203 194 198 199 203 210 208 235 234 237 229 218 213 193 197 193 188 188 192 189 194 197 192 196 212 199 200
249 325 292 242 220 262 260 268 266 261 264 278 267 265 277 223 185 190 189 189 192 192 200 197 198 203 206 203 193 206 223 221 225 209 206 201 195 198 193 190 191 193 188 187 189 193 200 204 204
155 32 297 287 236 251 244 266 261 273 260 254 263 269 289 211 173 175 179 185 190 190 198 199 199 200 205 201 196 192 187 204 204 203 201 187 180 190 196 191 193 194 201 202 206 211 210 204 212
201 165 190 226 227 269 248 263 244 264 278 297 262 270 168 151 159 172 181 187 193 194 200 201 202 200 202 197 200 196 195 190 192 186 192 191 193 194 193 198 201 200 203 211 206 210 211 210 226
227 199 221 251 289 288 242 274 291 351 326 310 274 251 164 152 161 172 180 188 193 199 202 207 202 201 199 197 202 197 195 189 179 182 192 201 206 207 207 202 205 205 207 202 205 211 216 220 227
180 168 239 245 210 244 241 256 253 334 312 309 352 30 346 172 165 173 181 190 199 204 203 209 200 202 195 194 198 198 195 196 202 204 196 197 194 199 202 196 198 198 199 207 213 222 222 230 234
347 325 219 206 186 227 312 270 81 123 271 335 325 3 343 23 173 177 187 195 198 200 202 203 198 203 194 191 194 199 203 208 211 208 204 203 201 200 199 202 205 206 206 209 220 224 235 233 236
165 237 319 225 237 225 228 251 270 34 27 345 322 28 328 341 300 176 186 192 194 197 198 200 199 200 202 188 192 199 200 201 201 200 197 196 199 204 201 206 207 211 214 216 225 229 235 236 245